<?xml version="1.0"?>
<gpx xmlns="http://www.topografix.com/GPX/1/1" xmlns:xsi="http://www.w3.org/2001/XMLSchema-instance" version="1.1" creator="GPX RubyGem 1.0.0 -- http://dougfales.github.io/gpx/" xsi:schemaLocation="http://www.topografix.com/GPX/1/1 http://www.topografix.com/GPX/1/1/gpx.xsd">
  <metadata>
    <name/>
    <time>2026-05-10T06:27:50+00:00</time>
    <bound minlat="90.0" minlon="180.0" maxlat="-90.0" maxlon="-180.0"/>
  </metadata>
  <trk>
    <name/>
    <trkseg>
      <trkpt lat="51.938875" lon="8.949533">
        <time>1970-01-01T00:00:00+00:00</time>
        <ele>185.0</ele>
      </trkpt>
      <trkpt lat="51.938801" lon="8.94962">
        <time>1970-01-01T00:00:00+00:00</time>
        <ele>186.0</ele>
      </trkpt>
      <trkpt lat="51.938917" lon="8.949852">
        <time>1970-01-01T00:00:00+00:00</time>
        <ele>186.0</ele>
      </trkpt>
      <trkpt lat="51.938814" lon="8.949953">
        <time>1970-01-01T00:00:00+00:00</time>
        <ele>187.0</ele>
      </trkpt>
      <trkpt lat="51.937714" lon="8.951011">
        <time>1970-01-01T00:00:00+00:00</time>
        <ele>189.0</ele>
      </trkpt>
      <trkpt lat="51.936943" lon="8.951727">
        <time>1970-01-01T00:00:00+00:00</time>
        <ele>194.0</ele>
      </trkpt>
      <trkpt lat="51.936572" lon="8.952071">
        <time>1970-01-01T00:00:00+00:00</time>
        <ele>198.0</ele>
      </trkpt>
      <trkpt lat="51.936393" lon="8.952213">
        <time>1970-01-01T00:00:00+00:00</time>
        <ele>200.0</ele>
      </trkpt>
      <trkpt lat="51.935999" lon="8.952465">
        <time>1970-01-01T00:00:00+00:00</time>
        <ele>203.0</ele>
      </trkpt>
      <trkpt lat="51.935322" lon="8.952877">
        <time>1970-01-01T00:00:00+00:00</time>
        <ele>207.0</ele>
      </trkpt>
      <trkpt lat="51.934635" lon="8.95331">
        <time>1970-01-01T00:00:00+00:00</time>
        <ele>211.0</ele>
      </trkpt>
      <trkpt lat="51.934321" lon="8.953453">
        <time>1970-01-01T00:00:00+00:00</time>
        <ele>213.0</ele>
      </trkpt>
      <trkpt lat="51.933906" lon="8.953602">
        <time>1970-01-01T00:00:00+00:00</time>
        <ele>215.0</ele>
      </trkpt>
      <trkpt lat="51.933669" lon="8.953677">
        <time>1970-01-01T00:00:00+00:00</time>
        <ele>216.0</ele>
      </trkpt>
      <trkpt lat="51.933307" lon="8.953796">
        <time>1970-01-01T00:00:00+00:00</time>
        <ele>218.0</ele>
      </trkpt>
      <trkpt lat="51.933217" lon="8.953855">
        <time>1970-01-01T00:00:00+00:00</time>
        <ele>217.0</ele>
      </trkpt>
      <trkpt lat="51.933203" lon="8.953805">
        <time>1970-01-01T00:00:00+00:00</time>
        <ele>217.0</ele>
      </trkpt>
      <trkpt lat="51.933084" lon="8.953903">
        <time>1970-01-01T00:00:00+00:00</time>
        <ele>217.0</ele>
      </trkpt>
      <trkpt lat="51.933021" lon="8.953885">
        <time>1970-01-01T00:00:00+00:00</time>
        <ele>217.0</ele>
      </trkpt>
      <trkpt lat="51.932986" lon="8.953947">
        <time>1970-01-01T00:00:00+00:00</time>
        <ele>217.0</ele>
      </trkpt>
      <trkpt lat="51.932819" lon="8.953665">
        <time>1970-01-01T00:00:00+00:00</time>
        <ele>219.0</ele>
      </trkpt>
      <trkpt lat="51.932788" lon="8.953715">
        <time>1970-01-01T00:00:00+00:00</time>
        <ele>219.0</ele>
      </trkpt>
      <trkpt lat="51.932631" lon="8.953962">
        <time>1970-01-01T00:00:00+00:00</time>
        <ele>219.0</ele>
      </trkpt>
      <trkpt lat="51.93245" lon="8.954172">
        <time>1970-01-01T00:00:00+00:00</time>
        <ele>220.0</ele>
      </trkpt>
      <trkpt lat="51.932146" lon="8.954551">
        <time>1970-01-01T00:00:00+00:00</time>
        <ele>222.0</ele>
      </trkpt>
      <trkpt lat="51.932084" lon="8.954606">
        <time>1970-01-01T00:00:00+00:00</time>
        <ele>223.0</ele>
      </trkpt>
      <trkpt lat="51.931863" lon="8.9548">
        <time>1970-01-01T00:00:00+00:00</time>
        <ele>224.0</ele>
      </trkpt>
      <trkpt lat="51.931219" lon="8.955324">
        <time>1970-01-01T00:00:00+00:00</time>
        <ele>226.0</ele>
      </trkpt>
      <trkpt lat="51.930841" lon="8.955682">
        <time>1970-01-01T00:00:00+00:00</time>
        <ele>230.0</ele>
      </trkpt>
      <trkpt lat="51.930306" lon="8.956206">
        <time>1970-01-01T00:00:00+00:00</time>
        <ele>234.0</ele>
      </trkpt>
      <trkpt lat="51.929975" lon="8.956549">
        <time>1970-01-01T00:00:00+00:00</time>
        <ele>238.0</ele>
      </trkpt>
      <trkpt lat="51.929843" lon="8.956657">
        <time>1970-01-01T00:00:00+00:00</time>
        <ele>239.0</ele>
      </trkpt>
      <trkpt lat="51.929336" lon="8.956926">
        <time>1970-01-01T00:00:00+00:00</time>
        <ele>245.0</ele>
      </trkpt>
      <trkpt lat="51.92937" lon="8.957459">
        <time>1970-01-01T00:00:00+00:00</time>
        <ele>247.0</ele>
      </trkpt>
      <trkpt lat="51.929416" lon="8.95806">
        <time>1970-01-01T00:00:00+00:00</time>
        <ele>247.0</ele>
      </trkpt>
      <trkpt lat="51.929456" lon="8.959056">
        <time>1970-01-01T00:00:00+00:00</time>
        <ele>251.0</ele>
      </trkpt>
      <trkpt lat="51.929527" lon="8.961068">
        <time>1970-01-01T00:00:00+00:00</time>
        <ele>270.0</ele>
      </trkpt>
      <trkpt lat="51.929667" lon="8.962302">
        <time>1970-01-01T00:00:00+00:00</time>
        <ele>268.0</ele>
      </trkpt>
      <trkpt lat="51.92971" lon="8.962799">
        <time>1970-01-01T00:00:00+00:00</time>
        <ele>268.0</ele>
      </trkpt>
      <trkpt lat="51.929482" lon="8.963323">
        <time>1970-01-01T00:00:00+00:00</time>
        <ele>282.0</ele>
      </trkpt>
      <trkpt lat="51.929243" lon="8.963801">
        <time>1970-01-01T00:00:00+00:00</time>
        <ele>280.0</ele>
      </trkpt>
      <trkpt lat="51.929064" lon="8.964035">
        <time>1970-01-01T00:00:00+00:00</time>
        <ele>278.0</ele>
      </trkpt>
      <trkpt lat="51.928856" lon="8.96405">
        <time>1970-01-01T00:00:00+00:00</time>
        <ele>276.0</ele>
      </trkpt>
      <trkpt lat="51.928649" lon="8.964001">
        <time>1970-01-01T00:00:00+00:00</time>
        <ele>273.0</ele>
      </trkpt>
      <trkpt lat="51.92864" lon="8.964337">
        <time>1970-01-01T00:00:00+00:00</time>
        <ele>270.0</ele>
      </trkpt>
      <trkpt lat="51.928719" lon="8.964745">
        <time>1970-01-01T00:00:00+00:00</time>
        <ele>265.0</ele>
      </trkpt>
      <trkpt lat="51.928759" lon="8.96527">
        <time>1970-01-01T00:00:00+00:00</time>
        <ele>261.0</ele>
      </trkpt>
      <trkpt lat="51.928752" lon="8.966096">
        <time>1970-01-01T00:00:00+00:00</time>
        <ele>257.0</ele>
      </trkpt>
      <trkpt lat="51.928706" lon="8.966955">
        <time>1970-01-01T00:00:00+00:00</time>
        <ele>250.0</ele>
      </trkpt>
      <trkpt lat="51.92862" lon="8.967159">
        <time>1970-01-01T00:00:00+00:00</time>
        <ele>247.0</ele>
      </trkpt>
      <trkpt lat="51.928438" lon="8.967287">
        <time>1970-01-01T00:00:00+00:00</time>
        <ele>246.0</ele>
      </trkpt>
      <trkpt lat="51.928223" lon="8.967362">
        <time>1970-01-01T00:00:00+00:00</time>
        <ele>245.0</ele>
      </trkpt>
      <trkpt lat="51.927859" lon="8.967545">
        <time>1970-01-01T00:00:00+00:00</time>
        <ele>251.0</ele>
      </trkpt>
      <trkpt lat="51.927244" lon="8.970261">
        <time>1970-01-01T00:00:00+00:00</time>
        <ele>219.0</ele>
      </trkpt>
      <trkpt lat="51.927508" lon="8.970321">
        <time>1970-01-01T00:00:00+00:00</time>
        <ele>219.0</ele>
      </trkpt>
      <trkpt lat="51.927377" lon="8.970922">
        <time>1970-01-01T00:00:00+00:00</time>
        <ele>217.0</ele>
      </trkpt>
      <trkpt lat="51.92682" lon="8.973477">
        <time>1970-01-01T00:00:00+00:00</time>
        <ele>218.0</ele>
      </trkpt>
      <trkpt lat="51.926536" lon="8.973892">
        <time>1970-01-01T00:00:00+00:00</time>
        <ele>214.0</ele>
      </trkpt>
      <trkpt lat="51.926353" lon="8.974106">
        <time>1970-01-01T00:00:00+00:00</time>
        <ele>214.0</ele>
      </trkpt>
      <trkpt lat="51.925815" lon="8.97469">
        <time>1970-01-01T00:00:00+00:00</time>
        <ele>220.0</ele>
      </trkpt>
      <trkpt lat="51.925889" lon="8.975222">
        <time>1970-01-01T00:00:00+00:00</time>
        <ele>223.0</ele>
      </trkpt>
      <trkpt lat="51.925815" lon="8.976664">
        <time>1970-01-01T00:00:00+00:00</time>
        <ele>224.0</ele>
      </trkpt>
      <trkpt lat="51.92579" lon="8.977547">
        <time>1970-01-01T00:00:00+00:00</time>
        <ele>219.0</ele>
      </trkpt>
      <trkpt lat="51.925878" lon="8.978511">
        <time>1970-01-01T00:00:00+00:00</time>
        <ele>216.0</ele>
      </trkpt>
      <trkpt lat="51.926005" lon="8.979453">
        <time>1970-01-01T00:00:00+00:00</time>
        <ele>214.0</ele>
      </trkpt>
      <trkpt lat="51.926049" lon="8.979538">
        <time>1970-01-01T00:00:00+00:00</time>
        <ele>214.0</ele>
      </trkpt>
      <trkpt lat="51.92604" lon="8.979639">
        <time>1970-01-01T00:00:00+00:00</time>
        <ele>214.0</ele>
      </trkpt>
      <trkpt lat="51.926208" lon="8.980886">
        <time>1970-01-01T00:00:00+00:00</time>
        <ele>215.0</ele>
      </trkpt>
      <trkpt lat="51.926328" lon="8.981637">
        <time>1970-01-01T00:00:00+00:00</time>
        <ele>219.0</ele>
      </trkpt>
      <trkpt lat="51.926759" lon="8.981739">
        <time>1970-01-01T00:00:00+00:00</time>
        <ele>223.0</ele>
      </trkpt>
      <trkpt lat="51.926858" lon="8.981803">
        <time>1970-01-01T00:00:00+00:00</time>
        <ele>224.0</ele>
      </trkpt>
      <trkpt lat="51.926974" lon="8.981809">
        <time>1970-01-01T00:00:00+00:00</time>
        <ele>225.0</ele>
      </trkpt>
      <trkpt lat="51.927199" lon="8.981932">
        <time>1970-01-01T00:00:00+00:00</time>
        <ele>228.0</ele>
      </trkpt>
      <trkpt lat="51.927381" lon="8.981959">
        <time>1970-01-01T00:00:00+00:00</time>
        <ele>230.0</ele>
      </trkpt>
      <trkpt lat="51.92755" lon="8.981696">
        <time>1970-01-01T00:00:00+00:00</time>
        <ele>229.0</ele>
      </trkpt>
      <trkpt lat="51.927748" lon="8.981578">
        <time>1970-01-01T00:00:00+00:00</time>
        <ele>230.0</ele>
      </trkpt>
      <trkpt lat="51.927943" lon="8.98139">
        <time>1970-01-01T00:00:00+00:00</time>
        <ele>230.0</ele>
      </trkpt>
      <trkpt lat="51.928191" lon="8.981251">
        <time>1970-01-01T00:00:00+00:00</time>
        <ele>231.0</ele>
      </trkpt>
      <trkpt lat="51.928271" lon="8.981133">
        <time>1970-01-01T00:00:00+00:00</time>
        <ele>231.0</ele>
      </trkpt>
      <trkpt lat="51.928692" lon="8.980708">
        <time>1970-01-01T00:00:00+00:00</time>
        <ele>232.0</ele>
      </trkpt>
      <trkpt lat="51.929066" lon="8.98168">
        <time>1970-01-01T00:00:00+00:00</time>
        <ele>254.0</ele>
      </trkpt>
      <trkpt lat="51.929158" lon="8.981617">
        <time>1970-01-01T00:00:00+00:00</time>
        <ele>254.0</ele>
      </trkpt>
      <trkpt lat="51.929277" lon="8.981496">
        <time>1970-01-01T00:00:00+00:00</time>
        <ele>255.0</ele>
      </trkpt>
      <trkpt lat="51.929345" lon="8.981459">
        <time>1970-01-01T00:00:00+00:00</time>
        <ele>255.0</ele>
      </trkpt>
      <trkpt lat="51.929445" lon="8.981471">
        <time>1970-01-01T00:00:00+00:00</time>
        <ele>256.0</ele>
      </trkpt>
      <trkpt lat="51.929711" lon="8.981697">
        <time>1970-01-01T00:00:00+00:00</time>
        <ele>252.0</ele>
      </trkpt>
      <trkpt lat="51.9301" lon="8.981346">
        <time>1970-01-01T00:00:00+00:00</time>
        <ele>253.0</ele>
      </trkpt>
      <trkpt lat="51.930513" lon="8.981029">
        <time>1970-01-01T00:00:00+00:00</time>
        <ele>251.0</ele>
      </trkpt>
      <trkpt lat="51.930652" lon="8.981018">
        <time>1970-01-01T00:00:00+00:00</time>
        <ele>249.0</ele>
      </trkpt>
      <trkpt lat="51.930811" lon="8.980943">
        <time>1970-01-01T00:00:00+00:00</time>
        <ele>245.0</ele>
      </trkpt>
      <trkpt lat="51.930936" lon="8.980772">
        <time>1970-01-01T00:00:00+00:00</time>
        <ele>242.0</ele>
      </trkpt>
      <trkpt lat="51.93137" lon="8.980503">
        <time>1970-01-01T00:00:00+00:00</time>
        <ele>233.0</ele>
      </trkpt>
      <trkpt lat="51.931617" lon="8.980289">
        <time>1970-01-01T00:00:00+00:00</time>
        <ele>230.0</ele>
      </trkpt>
      <trkpt lat="51.931714" lon="8.980382">
        <time>1970-01-01T00:00:00+00:00</time>
        <ele>232.0</ele>
      </trkpt>
      <trkpt lat="51.931899" lon="8.980749">
        <time>1970-01-01T00:00:00+00:00</time>
        <ele>237.0</ele>
      </trkpt>
      <trkpt lat="51.932057" lon="8.980975">
        <time>1970-01-01T00:00:00+00:00</time>
        <ele>239.0</ele>
      </trkpt>
      <trkpt lat="51.932095" lon="8.980988">
        <time>1970-01-01T00:00:00+00:00</time>
        <ele>238.0</ele>
      </trkpt>
      <trkpt lat="51.932119" lon="8.980956">
        <time>1970-01-01T00:00:00+00:00</time>
        <ele>238.0</ele>
      </trkpt>
      <trkpt lat="51.932809" lon="8.979231">
        <time>1970-01-01T00:00:00+00:00</time>
        <ele>223.0</ele>
      </trkpt>
      <trkpt lat="51.933156" lon="8.97841">
        <time>1970-01-01T00:00:00+00:00</time>
        <ele>224.0</ele>
      </trkpt>
      <trkpt lat="51.933417" lon="8.97789">
        <time>1970-01-01T00:00:00+00:00</time>
        <ele>224.0</ele>
      </trkpt>
      <trkpt lat="51.934191" lon="8.976506">
        <time>1970-01-01T00:00:00+00:00</time>
        <ele>219.0</ele>
      </trkpt>
      <trkpt lat="51.934469" lon="8.976195">
        <time>1970-01-01T00:00:00+00:00</time>
        <ele>214.0</ele>
      </trkpt>
      <trkpt lat="51.934866" lon="8.975969">
        <time>1970-01-01T00:00:00+00:00</time>
        <ele>211.0</ele>
      </trkpt>
      <trkpt lat="51.93523" lon="8.975841">
        <time>1970-01-01T00:00:00+00:00</time>
        <ele>209.0</ele>
      </trkpt>
      <trkpt lat="51.93564" lon="8.975809">
        <time>1970-01-01T00:00:00+00:00</time>
        <ele>207.0</ele>
      </trkpt>
      <trkpt lat="51.935858" lon="8.975841">
        <time>1970-01-01T00:00:00+00:00</time>
        <ele>207.0</ele>
      </trkpt>
      <trkpt lat="51.93667" lon="8.975796">
        <time>1970-01-01T00:00:00+00:00</time>
        <ele>203.0</ele>
      </trkpt>
      <trkpt lat="51.937083" lon="8.975644">
        <time>1970-01-01T00:00:00+00:00</time>
        <ele>201.0</ele>
      </trkpt>
      <trkpt lat="51.937224" lon="8.975475">
        <time>1970-01-01T00:00:00+00:00</time>
        <ele>200.0</ele>
      </trkpt>
      <trkpt lat="51.937167" lon="8.974809">
        <time>1970-01-01T00:00:00+00:00</time>
        <ele>198.0</ele>
      </trkpt>
      <trkpt lat="51.937144" lon="8.974286">
        <time>1970-01-01T00:00:00+00:00</time>
        <ele>196.0</ele>
      </trkpt>
      <trkpt lat="51.937084" lon="8.973835">
        <time>1970-01-01T00:00:00+00:00</time>
        <ele>196.0</ele>
      </trkpt>
      <trkpt lat="51.937084" lon="8.973835">
        <time>1970-01-01T00:00:00+00:00</time>
        <ele>196.0</ele>
      </trkpt>
      <trkpt lat="51.937144" lon="8.974286">
        <time>1970-01-01T00:00:00+00:00</time>
        <ele>196.0</ele>
      </trkpt>
      <trkpt lat="51.937167" lon="8.974809">
        <time>1970-01-01T00:00:00+00:00</time>
        <ele>198.0</ele>
      </trkpt>
      <trkpt lat="51.937224" lon="8.975475">
        <time>1970-01-01T00:00:00+00:00</time>
        <ele>200.0</ele>
      </trkpt>
      <trkpt lat="51.937083" lon="8.975644">
        <time>1970-01-01T00:00:00+00:00</time>
        <ele>201.0</ele>
      </trkpt>
      <trkpt lat="51.93667" lon="8.975796">
        <time>1970-01-01T00:00:00+00:00</time>
        <ele>203.0</ele>
      </trkpt>
      <trkpt lat="51.935858" lon="8.975841">
        <time>1970-01-01T00:00:00+00:00</time>
        <ele>207.0</ele>
      </trkpt>
      <trkpt lat="51.93564" lon="8.975809">
        <time>1970-01-01T00:00:00+00:00</time>
        <ele>207.0</ele>
      </trkpt>
      <trkpt lat="51.93523" lon="8.975841">
        <time>1970-01-01T00:00:00+00:00</time>
        <ele>209.0</ele>
      </trkpt>
      <trkpt lat="51.934866" lon="8.975969">
        <time>1970-01-01T00:00:00+00:00</time>
        <ele>211.0</ele>
      </trkpt>
      <trkpt lat="51.934469" lon="8.976195">
        <time>1970-01-01T00:00:00+00:00</time>
        <ele>214.0</ele>
      </trkpt>
      <trkpt lat="51.934191" lon="8.976506">
        <time>1970-01-01T00:00:00+00:00</time>
        <ele>219.0</ele>
      </trkpt>
      <trkpt lat="51.933417" lon="8.97789">
        <time>1970-01-01T00:00:00+00:00</time>
        <ele>224.0</ele>
      </trkpt>
      <trkpt lat="51.933156" lon="8.97841">
        <time>1970-01-01T00:00:00+00:00</time>
        <ele>224.0</ele>
      </trkpt>
      <trkpt lat="51.932809" lon="8.979231">
        <time>1970-01-01T00:00:00+00:00</time>
        <ele>223.0</ele>
      </trkpt>
      <trkpt lat="51.932119" lon="8.980956">
        <time>1970-01-01T00:00:00+00:00</time>
        <ele>238.0</ele>
      </trkpt>
      <trkpt lat="51.932095" lon="8.980988">
        <time>1970-01-01T00:00:00+00:00</time>
        <ele>238.0</ele>
      </trkpt>
      <trkpt lat="51.932057" lon="8.980975">
        <time>1970-01-01T00:00:00+00:00</time>
        <ele>239.0</ele>
      </trkpt>
      <trkpt lat="51.931899" lon="8.980749">
        <time>1970-01-01T00:00:00+00:00</time>
        <ele>237.0</ele>
      </trkpt>
      <trkpt lat="51.931714" lon="8.980382">
        <time>1970-01-01T00:00:00+00:00</time>
        <ele>232.0</ele>
      </trkpt>
      <trkpt lat="51.931617" lon="8.980289">
        <time>1970-01-01T00:00:00+00:00</time>
        <ele>230.0</ele>
      </trkpt>
      <trkpt lat="51.93137" lon="8.980503">
        <time>1970-01-01T00:00:00+00:00</time>
        <ele>233.0</ele>
      </trkpt>
      <trkpt lat="51.930936" lon="8.980772">
        <time>1970-01-01T00:00:00+00:00</time>
        <ele>242.0</ele>
      </trkpt>
      <trkpt lat="51.930811" lon="8.980943">
        <time>1970-01-01T00:00:00+00:00</time>
        <ele>245.0</ele>
      </trkpt>
      <trkpt lat="51.930652" lon="8.981018">
        <time>1970-01-01T00:00:00+00:00</time>
        <ele>249.0</ele>
      </trkpt>
      <trkpt lat="51.930513" lon="8.981029">
        <time>1970-01-01T00:00:00+00:00</time>
        <ele>251.0</ele>
      </trkpt>
      <trkpt lat="51.9301" lon="8.981346">
        <time>1970-01-01T00:00:00+00:00</time>
        <ele>253.0</ele>
      </trkpt>
      <trkpt lat="51.929711" lon="8.981697">
        <time>1970-01-01T00:00:00+00:00</time>
        <ele>252.0</ele>
      </trkpt>
      <trkpt lat="51.929445" lon="8.981471">
        <time>1970-01-01T00:00:00+00:00</time>
        <ele>256.0</ele>
      </trkpt>
      <trkpt lat="51.929345" lon="8.981459">
        <time>1970-01-01T00:00:00+00:00</time>
        <ele>255.0</ele>
      </trkpt>
      <trkpt lat="51.929277" lon="8.981496">
        <time>1970-01-01T00:00:00+00:00</time>
        <ele>255.0</ele>
      </trkpt>
      <trkpt lat="51.929158" lon="8.981617">
        <time>1970-01-01T00:00:00+00:00</time>
        <ele>254.0</ele>
      </trkpt>
      <trkpt lat="51.929066" lon="8.98168">
        <time>1970-01-01T00:00:00+00:00</time>
        <ele>254.0</ele>
      </trkpt>
      <trkpt lat="51.928692" lon="8.980708">
        <time>1970-01-01T00:00:00+00:00</time>
        <ele>232.0</ele>
      </trkpt>
      <trkpt lat="51.928271" lon="8.981133">
        <time>1970-01-01T00:00:00+00:00</time>
        <ele>231.0</ele>
      </trkpt>
      <trkpt lat="51.928191" lon="8.981251">
        <time>1970-01-01T00:00:00+00:00</time>
        <ele>231.0</ele>
      </trkpt>
      <trkpt lat="51.927943" lon="8.98139">
        <time>1970-01-01T00:00:00+00:00</time>
        <ele>230.0</ele>
      </trkpt>
      <trkpt lat="51.927748" lon="8.981578">
        <time>1970-01-01T00:00:00+00:00</time>
        <ele>230.0</ele>
      </trkpt>
      <trkpt lat="51.92755" lon="8.981696">
        <time>1970-01-01T00:00:00+00:00</time>
        <ele>229.0</ele>
      </trkpt>
      <trkpt lat="51.927381" lon="8.981959">
        <time>1970-01-01T00:00:00+00:00</time>
        <ele>230.0</ele>
      </trkpt>
      <trkpt lat="51.927199" lon="8.981932">
        <time>1970-01-01T00:00:00+00:00</time>
        <ele>228.0</ele>
      </trkpt>
      <trkpt lat="51.926974" lon="8.981809">
        <time>1970-01-01T00:00:00+00:00</time>
        <ele>225.0</ele>
      </trkpt>
      <trkpt lat="51.926858" lon="8.981803">
        <time>1970-01-01T00:00:00+00:00</time>
        <ele>224.0</ele>
      </trkpt>
      <trkpt lat="51.926759" lon="8.981739">
        <time>1970-01-01T00:00:00+00:00</time>
        <ele>223.0</ele>
      </trkpt>
      <trkpt lat="51.926328" lon="8.981637">
        <time>1970-01-01T00:00:00+00:00</time>
        <ele>219.0</ele>
      </trkpt>
      <trkpt lat="51.926208" lon="8.980886">
        <time>1970-01-01T00:00:00+00:00</time>
        <ele>215.0</ele>
      </trkpt>
      <trkpt lat="51.92604" lon="8.979639">
        <time>1970-01-01T00:00:00+00:00</time>
        <ele>214.0</ele>
      </trkpt>
      <trkpt lat="51.926049" lon="8.979538">
        <time>1970-01-01T00:00:00+00:00</time>
        <ele>214.0</ele>
      </trkpt>
      <trkpt lat="51.926005" lon="8.979453">
        <time>1970-01-01T00:00:00+00:00</time>
        <ele>214.0</ele>
      </trkpt>
      <trkpt lat="51.925878" lon="8.978511">
        <time>1970-01-01T00:00:00+00:00</time>
        <ele>216.0</ele>
      </trkpt>
      <trkpt lat="51.92579" lon="8.977547">
        <time>1970-01-01T00:00:00+00:00</time>
        <ele>219.0</ele>
      </trkpt>
      <trkpt lat="51.925815" lon="8.976664">
        <time>1970-01-01T00:00:00+00:00</time>
        <ele>224.0</ele>
      </trkpt>
      <trkpt lat="51.925889" lon="8.975222">
        <time>1970-01-01T00:00:00+00:00</time>
        <ele>223.0</ele>
      </trkpt>
      <trkpt lat="51.925815" lon="8.97469">
        <time>1970-01-01T00:00:00+00:00</time>
        <ele>220.0</ele>
      </trkpt>
      <trkpt lat="51.926353" lon="8.974106">
        <time>1970-01-01T00:00:00+00:00</time>
        <ele>214.0</ele>
      </trkpt>
      <trkpt lat="51.926536" lon="8.973892">
        <time>1970-01-01T00:00:00+00:00</time>
        <ele>214.0</ele>
      </trkpt>
      <trkpt lat="51.92682" lon="8.973477">
        <time>1970-01-01T00:00:00+00:00</time>
        <ele>218.0</ele>
      </trkpt>
      <trkpt lat="51.927377" lon="8.970922">
        <time>1970-01-01T00:00:00+00:00</time>
        <ele>217.0</ele>
      </trkpt>
      <trkpt lat="51.927508" lon="8.970321">
        <time>1970-01-01T00:00:00+00:00</time>
        <ele>219.0</ele>
      </trkpt>
      <trkpt lat="51.927244" lon="8.970261">
        <time>1970-01-01T00:00:00+00:00</time>
        <ele>219.0</ele>
      </trkpt>
      <trkpt lat="51.927859" lon="8.967545">
        <time>1970-01-01T00:00:00+00:00</time>
        <ele>251.0</ele>
      </trkpt>
      <trkpt lat="51.928223" lon="8.967362">
        <time>1970-01-01T00:00:00+00:00</time>
        <ele>245.0</ele>
      </trkpt>
      <trkpt lat="51.928438" lon="8.967287">
        <time>1970-01-01T00:00:00+00:00</time>
        <ele>246.0</ele>
      </trkpt>
      <trkpt lat="51.92862" lon="8.967159">
        <time>1970-01-01T00:00:00+00:00</time>
        <ele>247.0</ele>
      </trkpt>
      <trkpt lat="51.928706" lon="8.966955">
        <time>1970-01-01T00:00:00+00:00</time>
        <ele>250.0</ele>
      </trkpt>
      <trkpt lat="51.928752" lon="8.966096">
        <time>1970-01-01T00:00:00+00:00</time>
        <ele>257.0</ele>
      </trkpt>
      <trkpt lat="51.928759" lon="8.96527">
        <time>1970-01-01T00:00:00+00:00</time>
        <ele>261.0</ele>
      </trkpt>
      <trkpt lat="51.928719" lon="8.964745">
        <time>1970-01-01T00:00:00+00:00</time>
        <ele>265.0</ele>
      </trkpt>
      <trkpt lat="51.92864" lon="8.964337">
        <time>1970-01-01T00:00:00+00:00</time>
        <ele>270.0</ele>
      </trkpt>
      <trkpt lat="51.928649" lon="8.964001">
        <time>1970-01-01T00:00:00+00:00</time>
        <ele>273.0</ele>
      </trkpt>
      <trkpt lat="51.928856" lon="8.96405">
        <time>1970-01-01T00:00:00+00:00</time>
        <ele>276.0</ele>
      </trkpt>
      <trkpt lat="51.929064" lon="8.964035">
        <time>1970-01-01T00:00:00+00:00</time>
        <ele>278.0</ele>
      </trkpt>
      <trkpt lat="51.929243" lon="8.963801">
        <time>1970-01-01T00:00:00+00:00</time>
        <ele>280.0</ele>
      </trkpt>
      <trkpt lat="51.929482" lon="8.963323">
        <time>1970-01-01T00:00:00+00:00</time>
        <ele>282.0</ele>
      </trkpt>
      <trkpt lat="51.92971" lon="8.962799">
        <time>1970-01-01T00:00:00+00:00</time>
        <ele>268.0</ele>
      </trkpt>
      <trkpt lat="51.929667" lon="8.962302">
        <time>1970-01-01T00:00:00+00:00</time>
        <ele>268.0</ele>
      </trkpt>
      <trkpt lat="51.929527" lon="8.961068">
        <time>1970-01-01T00:00:00+00:00</time>
        <ele>270.0</ele>
      </trkpt>
      <trkpt lat="51.929456" lon="8.959056">
        <time>1970-01-01T00:00:00+00:00</time>
        <ele>251.0</ele>
      </trkpt>
      <trkpt lat="51.929416" lon="8.95806">
        <time>1970-01-01T00:00:00+00:00</time>
        <ele>247.0</ele>
      </trkpt>
      <trkpt lat="51.92937" lon="8.957459">
        <time>1970-01-01T00:00:00+00:00</time>
        <ele>247.0</ele>
      </trkpt>
      <trkpt lat="51.929336" lon="8.956926">
        <time>1970-01-01T00:00:00+00:00</time>
        <ele>245.0</ele>
      </trkpt>
      <trkpt lat="51.929843" lon="8.956657">
        <time>1970-01-01T00:00:00+00:00</time>
        <ele>239.0</ele>
      </trkpt>
      <trkpt lat="51.929975" lon="8.956549">
        <time>1970-01-01T00:00:00+00:00</time>
        <ele>238.0</ele>
      </trkpt>
      <trkpt lat="51.930306" lon="8.956206">
        <time>1970-01-01T00:00:00+00:00</time>
        <ele>234.0</ele>
      </trkpt>
      <trkpt lat="51.930841" lon="8.955682">
        <time>1970-01-01T00:00:00+00:00</time>
        <ele>230.0</ele>
      </trkpt>
      <trkpt lat="51.931219" lon="8.955324">
        <time>1970-01-01T00:00:00+00:00</time>
        <ele>226.0</ele>
      </trkpt>
      <trkpt lat="51.931863" lon="8.9548">
        <time>1970-01-01T00:00:00+00:00</time>
        <ele>224.0</ele>
      </trkpt>
      <trkpt lat="51.932084" lon="8.954606">
        <time>1970-01-01T00:00:00+00:00</time>
        <ele>223.0</ele>
      </trkpt>
      <trkpt lat="51.932146" lon="8.954551">
        <time>1970-01-01T00:00:00+00:00</time>
        <ele>222.0</ele>
      </trkpt>
      <trkpt lat="51.93245" lon="8.954172">
        <time>1970-01-01T00:00:00+00:00</time>
        <ele>220.0</ele>
      </trkpt>
      <trkpt lat="51.932631" lon="8.953962">
        <time>1970-01-01T00:00:00+00:00</time>
        <ele>219.0</ele>
      </trkpt>
      <trkpt lat="51.932788" lon="8.953715">
        <time>1970-01-01T00:00:00+00:00</time>
        <ele>219.0</ele>
      </trkpt>
      <trkpt lat="51.932819" lon="8.953665">
        <time>1970-01-01T00:00:00+00:00</time>
        <ele>219.0</ele>
      </trkpt>
      <trkpt lat="51.932986" lon="8.953947">
        <time>1970-01-01T00:00:00+00:00</time>
        <ele>217.0</ele>
      </trkpt>
      <trkpt lat="51.933021" lon="8.953885">
        <time>1970-01-01T00:00:00+00:00</time>
        <ele>217.0</ele>
      </trkpt>
      <trkpt lat="51.933084" lon="8.953903">
        <time>1970-01-01T00:00:00+00:00</time>
        <ele>217.0</ele>
      </trkpt>
      <trkpt lat="51.933203" lon="8.953805">
        <time>1970-01-01T00:00:00+00:00</time>
        <ele>217.0</ele>
      </trkpt>
      <trkpt lat="51.933217" lon="8.953855">
        <time>1970-01-01T00:00:00+00:00</time>
        <ele>217.0</ele>
      </trkpt>
      <trkpt lat="51.933307" lon="8.953796">
        <time>1970-01-01T00:00:00+00:00</time>
        <ele>218.0</ele>
      </trkpt>
      <trkpt lat="51.933669" lon="8.953677">
        <time>1970-01-01T00:00:00+00:00</time>
        <ele>216.0</ele>
      </trkpt>
      <trkpt lat="51.933906" lon="8.953602">
        <time>1970-01-01T00:00:00+00:00</time>
        <ele>215.0</ele>
      </trkpt>
      <trkpt lat="51.934321" lon="8.953453">
        <time>1970-01-01T00:00:00+00:00</time>
        <ele>213.0</ele>
      </trkpt>
      <trkpt lat="51.934635" lon="8.95331">
        <time>1970-01-01T00:00:00+00:00</time>
        <ele>211.0</ele>
      </trkpt>
      <trkpt lat="51.935322" lon="8.952877">
        <time>1970-01-01T00:00:00+00:00</time>
        <ele>207.0</ele>
      </trkpt>
      <trkpt lat="51.935999" lon="8.952465">
        <time>1970-01-01T00:00:00+00:00</time>
        <ele>203.0</ele>
      </trkpt>
      <trkpt lat="51.936393" lon="8.952213">
        <time>1970-01-01T00:00:00+00:00</time>
        <ele>200.0</ele>
      </trkpt>
      <trkpt lat="51.936572" lon="8.952071">
        <time>1970-01-01T00:00:00+00:00</time>
        <ele>198.0</ele>
      </trkpt>
      <trkpt lat="51.936943" lon="8.951727">
        <time>1970-01-01T00:00:00+00:00</time>
        <ele>194.0</ele>
      </trkpt>
      <trkpt lat="51.937714" lon="8.951011">
        <time>1970-01-01T00:00:00+00:00</time>
        <ele>189.0</ele>
      </trkpt>
      <trkpt lat="51.938814" lon="8.949953">
        <time>1970-01-01T00:00:00+00:00</time>
        <ele>187.0</ele>
      </trkpt>
      <trkpt lat="51.938917" lon="8.949852">
        <time>1970-01-01T00:00:00+00:00</time>
        <ele>186.0</ele>
      </trkpt>
      <trkpt lat="51.938801" lon="8.94962">
        <time>1970-01-01T00:00:00+00:00</time>
        <ele>186.0</ele>
      </trkpt>
      <trkpt lat="51.938875" lon="8.949533">
        <time>1970-01-01T00:00:00+00:00</time>
        <ele>185.0</ele>
      </trkpt>
    </trkseg>
  </trk>
</gpx>
